N2RF KSLK-KBDL

Flight info

Callsign N2RF
Flight time 0h 39m
Altitude 25000
Route ALB STELA1
Aircraft C700/M-SBDGHM1RWXY/LB2

Departure

Time 2026-04-27 22:04
Airport Adirondack Regional Airport (KSLK)

Arrival

Time 2026-04-27 22:43
Airport Bradley International Airport (KBDL)
Time Latitude Longitude Altitude Speed Heading
2026-04-27 21:52 44.38365 -74.19936 1644 ft 0 kts 116°
2026-04-27 21:57 44.38377 -74.19923 1643 ft 2 kts 324°
2026-04-27 21:58 44.38365 -74.20002 1644 ft 12 kts 255°
2026-04-27 21:58 44.38359 -74.20085 1644 ft 13 kts 279°
2026-04-27 21:58 44.38437 -74.20180 1646 ft 17 kts 324°
2026-04-27 21:58 44.38547 -74.20287 1649 ft 21 kts 325°
2026-04-27 21:59 44.38677 -74.20414 1666 ft 25 kts 324°
2026-04-27 21:59 44.38779 -74.20404 1655 ft 20 kts 36°
2026-04-27 21:59 44.38907 -74.20279 1666 ft 25 kts 36°
2026-04-27 21:59 44.39062 -74.20129 1660 ft 29 kts 33°
2026-04-27 22:00 44.39239 -74.19957 1665 ft 32 kts 35°
2026-04-27 22:00 44.39404 -74.19798 1666 ft 20 kts 28°
2026-04-27 22:00 44.39447 -74.19808 1668 ft 0 kts 310°
2026-04-27 22:03 44.39469 -74.19850 1674 ft 28 kts 302°
2026-04-27 22:03 44.39415 -74.19978 1673 ft 37 kts 214°
2026-04-27 22:03 44.38901 -74.20474 1658 ft 139 kts 214°
2026-04-27 22:03 44.37916 -74.21457 1897 ft 201 kts 215°
2026-04-27 22:04 44.36728 -74.22692 3027 ft 219 kts 216°
2026-04-27 22:04 44.35463 -74.23954 4478 ft 229 kts 207°
2026-04-27 22:04 44.33840 -74.24314 5742 ft 253 kts 170°
2026-04-27 22:04 44.32148 -74.23468 7201 ft 263 kts 157°
2026-04-27 22:05 44.30399 -74.22596 8708 ft 271 kts 165°
2026-04-27 22:05 44.28521 -74.22055 10215 ft 281 kts 171°
2026-04-27 22:05 44.26505 -74.21595 11284 ft 308 kts 169°
2026-04-27 22:05 44.24334 -74.20994 12552 ft 323 kts 168°
2026-04-27 22:06 44.22109 -74.20339 14097 ft 332 kts 168°
2026-04-27 22:06 44.19802 -74.19695 15356 ft 343 kts 168°
2026-04-27 22:06 44.17427 -74.19049 16631 ft 353 kts 168°
2026-04-27 22:06 44.14978 -74.18368 17887 ft 363 kts 168°
2026-04-27 22:07 44.12464 -74.17666 19007 ft 373 kts 168°
2026-04-27 22:07 44.09880 -74.16948 20000 ft 383 kts 168°
2026-04-27 22:07 44.07239 -74.16217 20909 ft 391 kts 168°
2026-04-27 22:07 44.04544 -74.15473 21804 ft 399 kts 168°
2026-04-27 22:08 44.01788 -74.14710 22698 ft 407 kts 168°
2026-04-27 22:08 43.98979 -74.13932 23570 ft 415 kts 168°
2026-04-27 22:08 43.96160 -74.13154 24342 ft 422 kts 168°
2026-04-27 22:08 43.93256 -74.12355 25107 ft 429 kts 169°
2026-04-27 22:09 43.90251 -74.11527 25249 ft 454 kts 169°
2026-04-27 22:09 43.87053 -74.10645 25262 ft 480 kts 169°
2026-04-27 22:09 43.83700 -74.09723 25262 ft 499 kts 169°
2026-04-27 22:09 43.80279 -74.08784 25259 ft 502 kts 169°
2026-04-27 22:10 43.76843 -74.07841 25255 ft 503 kts 168°
2026-04-27 22:10 43.73416 -74.06902 25255 ft 503 kts 169°
2026-04-27 22:10 43.69972 -74.05959 25255 ft 503 kts 169°
2026-04-27 22:10 43.66545 -74.05022 25252 ft 502 kts 169°
2026-04-27 22:11 43.63107 -74.04084 25254 ft 502 kts 169°
2026-04-27 22:11 43.59686 -74.03151 25253 ft 501 kts 169°
2026-04-27 22:11 43.56269 -74.02219 25254 ft 501 kts 169°
2026-04-27 22:11 43.52846 -74.01289 25255 ft 501 kts 169°
2026-04-27 22:12 43.49417 -74.00356 25249 ft 498 kts 169°
2026-04-27 22:12 43.46163 -73.99473 24915 ft 471 kts 169°
2026-04-27 22:12 43.42924 -73.98595 23818 ft 466 kts 168°
2026-04-27 22:12 43.39813 -73.97753 22755 ft 457 kts 168°
2026-04-27 22:13 43.36721 -73.96914 21752 ft 448 kts 168°
2026-04-27 22:13 43.33698 -73.96096 20744 ft 439 kts 168°
2026-04-27 22:13 43.30725 -73.95296 19815 ft 430 kts 168°
2026-04-27 22:13 43.27823 -73.94514 18910 ft 421 kts 168°
2026-04-27 22:14 43.24976 -73.93744 17951 ft 413 kts 168°
2026-04-27 22:14 43.22186 -73.92990 16975 ft 405 kts 168°
2026-04-27 22:14 43.19450 -73.92258 16025 ft 397 kts 168°
2026-04-27 22:14 43.16764 -73.91536 15149 ft 392 kts 168°
2026-04-27 22:15 43.14104 -73.90821 15008 ft 395 kts 168°
2026-04-27 22:15 43.11320 -73.90072 15012 ft 411 kts 168°
2026-04-27 22:15 43.08526 -73.89323 15009 ft 410 kts 168°
2026-04-27 22:15 43.05713 -73.88574 15004 ft 414 kts 168°
2026-04-27 22:16 43.02889 -73.87815 15006 ft 412 kts 168°
2026-04-27 22:16 43.00069 -73.87174 15014 ft 410 kts 171°
2026-04-27 22:16 42.97291 -73.86318 15522 ft 403 kts 167°
2026-04-27 22:16 42.94660 -73.85298 17454 ft 391 kts 158°
2026-04-27 22:17 42.92296 -73.83846 19361 ft 371 kts 148°
2026-04-27 22:17 42.90271 -73.81654 20269 ft 378 kts 129°
2026-04-27 22:17 42.88926 -73.78597 21077 ft 376 kts 104°
2026-04-27 22:17 42.88532 -73.75129 22033 ft 369 kts 82°
2026-04-27 22:18 42.89115 -73.71788 22983 ft 360 kts 59°
2026-04-27 22:18 42.90568 -73.69092 23940 ft 351 kts 37°
2026-04-27 22:18 42.92643 -73.67445 24761 ft 345 kts 15°
2026-04-27 22:18 42.95026 -73.66996 25226 ft 356 kts 358°
2026-04-27 22:19 42.97575 -73.67324 25243 ft 381 kts 351°
2026-04-27 22:19 43.00272 -73.67986 25243 ft 406 kts 348°
2026-04-27 22:19 43.03071 -73.68796 25245 ft 414 kts 347°
2026-04-27 22:19 43.05874 -73.69657 25231 ft 413 kts 347°
2026-04-27 22:20 43.08674 -73.70538 25232 ft 412 kts 347°
2026-04-27 22:20 43.11473 -73.71429 25230 ft 413 kts 347°
2026-04-27 22:20 43.14279 -73.72326 25235 ft 415 kts 347°
2026-04-27 22:20 43.17095 -73.73230 25230 ft 415 kts 347°
2026-04-27 22:21 43.19902 -73.74130 25222 ft 414 kts 347°
2026-04-27 22:21 43.22702 -73.75029 25229 ft 413 kts 347°
2026-04-27 22:21 43.25506 -73.75928 25220 ft 415 kts 347°
2026-04-27 22:21 43.28318 -73.76828 25219 ft 415 kts 347°
2026-04-27 22:22 43.31130 -73.77732 25216 ft 415 kts 347°
2026-04-27 22:22 43.33948 -73.78638 25219 ft 415 kts 347°
2026-04-27 22:22 43.36766 -73.79544 25222 ft 415 kts 347°
2026-04-27 22:22 43.39566 -73.80471 25219 ft 414 kts 344°
2026-04-27 22:23 43.42118 -73.82277 25201 ft 418 kts 324°
2026-04-27 22:23 43.44183 -73.85122 25212 ft 425 kts 311°
2026-04-27 22:23 43.45636 -73.88692 25210 ft 433 kts 296°
2026-04-27 22:23 43.46325 -73.92759 25221 ft 443 kts 280°
2026-04-27 22:24 43.46134 -73.97031 25224 ft 454 kts 263°
2026-04-27 22:24 43.45012 -74.01134 25224 ft 467 kts 246°
2026-04-27 22:24 43.42973 -74.04687 25225 ft 480 kts 227°
2026-04-27 22:24 43.40173 -74.07234 25223 ft 490 kts 208°
2026-04-27 22:25 43.36860 -74.08447 25225 ft 498 kts 187°
2026-04-27 22:25 43.33406 -74.08140 25223 ft 502 kts 167°
2026-04-27 22:25 43.30106 -74.06760 25231 ft 501 kts 160°
2026-04-27 22:25 43.26846 -74.05082 25239 ft 500 kts 158°
2026-04-27 22:26 43.23586 -74.03372 25241 ft 502 kts 160°
2026-04-27 22:26 43.20230 -74.01824 25238 ft 502 kts 162°
2026-04-27 22:26 43.16918 -74.00347 25249 ft 500 kts 161°
2026-04-27 22:26 43.13681 -73.98779 25247 ft 499 kts 159°
2026-04-27 22:27 43.10369 -73.97131 25249 ft 501 kts 160°
2026-04-27 22:27 43.07071 -73.95575 25240 ft 502 kts 161°
2026-04-27 22:27 43.03757 -73.94049 25242 ft 503 kts 161°
2026-04-27 22:27 43.00496 -73.92498 25244 ft 502 kts 160°
2026-04-27 22:28 42.97211 -73.90910 25243 ft 501 kts 160°
2026-04-27 22:28 42.93922 -73.89355 25240 ft 500 kts 161°
2026-04-27 22:28 42.90665 -73.87836 25208 ft 480 kts 161°
2026-04-27 22:28 42.87563 -73.86373 24281 ft 468 kts 160°
2026-04-27 22:29 42.84504 -73.84918 23183 ft 461 kts 160°
2026-04-27 22:29 42.81509 -73.83504 22182 ft 451 kts 160°
2026-04-27 22:29 42.78574 -73.82126 21165 ft 442 kts 160°
2026-04-27 22:29 42.75756 -73.80519 19095 ft 446 kts 152°
2026-04-27 22:30 42.72986 -73.78359 16385 ft 471 kts 146°
2026-04-27 22:30 42.70576 -73.75539 15730 ft 440 kts 130°
2026-04-27 22:30 42.68692 -73.72486 15463 ft 405 kts 128°
2026-04-27 22:30 42.66820 -73.69805 15151 ft 381 kts 134°
2026-04-27 22:31 42.64921 -73.67298 15024 ft 387 kts 133°
2026-04-27 22:31 42.63021 -73.64539 15021 ft 406 kts 130°
2026-04-27 22:31 42.61132 -73.61681 15016 ft 407 kts 130°
2026-04-27 22:31 42.59178 -73.58866 15015 ft 411 kts 132°
2026-04-27 22:32 42.57191 -73.56070 15011 ft 410 kts 132°
2026-04-27 22:32 42.55266 -73.53294 15011 ft 409 kts 131°
2026-04-27 22:32 42.53323 -73.50462 15009 ft 410 kts 131°
2026-04-27 22:32 42.51364 -73.47644 15011 ft 411 kts 131°
2026-04-27 22:33 42.49392 -73.44831 15010 ft 412 kts 131°
2026-04-27 22:33 42.47418 -73.42027 15017 ft 411 kts 132°
2026-04-27 22:33 42.45411 -73.39272 15007 ft 410 kts 133°
2026-04-27 22:33 42.43474 -73.36621 14834 ft 383 kts 132°
2026-04-27 22:34 42.41632 -73.34053 13814 ft 379 kts 132°
2026-04-27 22:34 42.39817 -73.31511 12886 ft 372 kts 132°
2026-04-27 22:34 42.38029 -73.29038 12008 ft 364 kts 133°
2026-04-27 22:34 42.36272 -73.26621 11151 ft 359 kts 133°
2026-04-27 22:35 42.34539 -73.24221 11005 ft 363 kts 133°
2026-04-27 22:35 42.32718 -73.21696 11004 ft 376 kts 133°
2026-04-27 22:35 42.30893 -73.19185 11006 ft 375 kts 133°
2026-04-27 22:35 42.29045 -73.16642 11011 ft 380 kts 133°
2026-04-27 22:36 42.27227 -73.14135 10992 ft 359 kts 133°
2026-04-27 22:36 42.25540 -73.11815 10843 ft 333 kts 132°
2026-04-27 22:36 42.23979 -73.09675 10710 ft 311 kts 132°
2026-04-27 22:36 42.22517 -73.07659 10515 ft 294 kts 132°
2026-04-27 22:37 42.21089 -73.05694 9971 ft 293 kts 132°
2026-04-27 22:37 42.19672 -73.03746 9427 ft 290 kts 132°
2026-04-27 22:37 42.18263 -73.01816 8877 ft 287 kts 132°
2026-04-27 22:37 42.16870 -72.99907 8336 ft 285 kts 132°
2026-04-27 22:38 42.15502 -72.98031 7862 ft 282 kts 133°
2026-04-27 22:38 42.14128 -72.96148 7371 ft 280 kts 132°
2026-04-27 22:38 42.12775 -72.94291 6881 ft 277 kts 132°
2026-04-27 22:38 42.11434 -72.92439 6417 ft 275 kts 132°
2026-04-27 22:39 42.10097 -72.90609 5930 ft 273 kts 133°
2026-04-27 22:39 42.08747 -72.88835 5470 ft 270 kts 134°
2026-04-27 22:39 42.07406 -72.87083 5049 ft 267 kts 134°
2026-04-27 22:39 42.06118 -72.85377 5006 ft 255 kts 133°
2026-04-27 22:40 42.04834 -72.83674 5005 ft 263 kts 133°
2026-04-27 22:40 42.03517 -72.81932 5008 ft 267 kts 133°
2026-04-27 22:40 42.02192 -72.80180 5010 ft 267 kts 134°
2026-04-27 22:40 42.00902 -72.78469 4960 ft 238 kts 132°
2026-04-27 22:41 41.99902 -72.77091 4098 ft 179 kts 132°
2026-04-27 22:41 41.99085 -72.75975 3252 ft 156 kts 132°
2026-04-27 22:41 41.98371 -72.74996 2646 ft 139 kts 131°
2026-04-27 22:41 41.97705 -72.74080 1932 ft 136 kts 132°
2026-04-27 22:42 41.97040 -72.73165 1191 ft 140 kts 132°
2026-04-27 22:42 41.96278 -72.72110 456 ft 165 kts 134°
2026-04-27 22:42 41.95422 -72.70942 567 ft 183 kts 134°
2026-04-27 22:42 41.94597 -72.69836 360 ft 153 kts 134°
2026-04-27 22:43 41.93952 -72.68927 173 ft 113 kts 134°
2026-04-27 22:43 41.93746 -72.68649 173 ft 11 kts 134°
2026-04-27 22:43 41.93705 -72.68592 171 ft 20 kts 134°
2026-04-27 22:43 41.93514 -72.68333 168 ft 32 kts 134°
2026-04-27 22:44 41.93399 -72.68229 170 ft 19 kts 193°
2026-04-27 22:44 41.93358 -72.68304 171 ft 21 kts 259°
2026-04-27 22:44 41.93426 -72.68420 170 ft 22 kts 314°